Showing default

GONETS D1 7, 27058

Orbit data source: Space-Track

GONETS D1 7, 27058 is a payload satellite owned by Gonets (CIS) in LEO that was launched on Fri, 28 Dec 2001 UTC via a TSIKLON-3 launch vehicle from the Plesetsk Missile And Space Complex (PKMTR). Payload-class satellites include a variety of spacecraft equipped with specific instruments for various scientific and technological missions. These include communications satellites like Starlink; space stations such as the ISS; scientific satellites like the Hubble; Earth observation satellites from companies like Planet Labs, Umbra, and HawkEye 360; GPS; miniature CubeSats for education and research; and military/defense satellites.

Loading next visibility...
Identifier
27058, 2001-058D
Orbit
LEO
Last TLE update
8 hours ago
Origin
Manufacturer
NPO PM
Mission
Non-operational Civil Communications
Bus & Motor
STRELA-3, Unknown motor
Mass
225 kg wet, 225 kg dry
Launch date (UTC)
2001-12-28 (24 years ago)
Launch vehicle
TSIKLON-3
Launch site
Plesetsk Missile And Space Complex (PKMTR)
Object type
Payload
Rocket body
Debris
Shape & HBR
Cyl + 1 Ant, 7 m
Radar Cross Section
1.798 m², Medium (>0.1 m² and < 1m²)

Expand to show TLE details & history

TLE from 8 hours ago
0 GONETS D1 7
1 27058U 01058D   25187.58824247  .00000024  00000-0  73528-4 0  9994
2 27058  82.5335  63.5730 0004077  63.9915 296.1595 12.62076289 83398
Epoch: 2025-07-06T14:07Z
TLE epoch observation values (Epoch: 2025-07-06T14:07:04.149Z)
Latitude
-0.00005°
Longitude
-73.00407°
Altitude
1,415.715 km
Speed
7.153 km/s
True Right ascension
04h 14m 17s
True Declination
0° 00' 00"
Sunlit
Object was in daylight at epoch
Visualization orbit readout
Latitude
39.72223°
Longitude
-66.99265°
Altitude
1,416.981 km
Speed
7.157 km/s
Apparent Right ascension
01h 45m 07s
Apparent Declination
7° 12' 52"
Sunlit
Object is in daylight
Visualization observer readout
Local Sidereal Time
09:56:23
Azimuth
297.894° NW
Elevation
-19.379°
Doppler factor
1
Orbital elements
Apogee altitude
1,414.885 km
Perigee altitude
1,408.533 km
Semi-major axis
7,789.846 km
Eccentricity
0.00041
Inclination
82.5335°
RAAN
63.573°
Arg. of periapsis
63.9915°
True anomaly
Unknown
Mean anomaly
296.1595°
Eccentric anomaly
Unknown
Mean motion
3.15682 °/min
Orbital period
114.04 mins
BSTAR
0.000073528
Loading maneuver chart data...
Loading SW <> Apogee altitude chart data...
Loading historical data...
Loading historical data...
Loading historical data...
Loading historical data...
Loading historical data...
Loading historical data...
Loading historical data...

GONETS D1 7 Visibility forecast

Observer location: undefined°, undefined°

Span
Click to sort rows by Start time (UTC) header in descending order
Start Az.
Max El. time (UTC)
Max El. Az.
Max El.
End time (UTC)
End Az.
13 mins2025-07-07 02:08:20.747Z15.31° NNE2025-07-07 02:14:20.747Z62.705° ENE23.206°2025-07-07 02:21:20.747Z120.544° SE
15 mins2025-07-07 04:03:20.747Z345.373° N2025-07-07 04:10:20.747Z273.18° WNW42.396°2025-07-07 04:18:20.747Z188.405° SSW
10 mins2025-07-07 14:59:20.747Z122.196° SE2025-07-07 15:04:20.747Z77.206° E22.625°2025-07-07 15:09:20.747Z36.312° NE
15 mins2025-07-07 16:51:20.747Z201.109° SSW2025-07-07 16:58:20.747Z286.05° WNW42.256°2025-07-07 17:06:20.747Z2.149° NNE
|